Lapse_Rate
6.4 6.5 6.6 6.5 6.5 6.5 6.7 6.9 7.2 7.1 7.1 6.9 6.7 6.3 6.1 5.8 5.4 5.3 5.2 5.0 4.7 4.5 4.3 4.3 4.5 4.9 4.9 4.7 5.1 4.7 4.7 4.6 4.5 4.5 4.4 4.2 4.0 4.3 4.3 4.6 4.7 4.6 4.6
6.2 6.0 6.3 6.5 6.7 6.8 6.8 7.0 7.2 7.0 6.9 6.8 6.6 6.3 6.1 5.9 5.8 5.6 5.0 4.9 4.5 4.6 4.9 4.5 4.4 5.0 5.2 5.1 5.1 4.6 4.6 4.5 4.4 4.4 4.1 3.8 3.7 4.0 4.4 4.7 4.7 4.9 4.7
6.1 6.0 6.0 6.2 6.6 7.0 7.1 7.1 7.2 7.1 6.6 6.6 6.6 6.4 6.1 6.0 5.7 5.3 4.9 5.1 4.9 5.0 4.9 5.1 4.8 4.9 5.3 5.2 5.0 4.0 4.2 4.1 4.0 4.1 3.7 3.5 3.6 4.2 4.6 4.7 4.7 4.6 4.6
6.1 6.3 6.7 6.8 6.8 7.0 6.9 6.8 6.7 6.9 6.6 6.4 6.4 6.4 6.3 6.0 5.8 5.5 5.3 5.0 4.9 5.1 5.0 5.0 4.9 5.0 5.1 5.0 3.6 3.1 3.7 3.8 3.7 3.6 3.3 3.3 3.6 4.2 4.3 4.5 4.7 4.6 4.7
6.4 6.4 6.8 6.9 6.6 6.6 6.7 6.6 6.6 6.5 6.4 6.4 6.4 6.5 6.3 6.1 5.8 5.7 5.4 5.2 5.0 5.2 5.1 5.1 5.0 4.7 4.8 4.4 3.1 3.0 3.3 3.4 3.3 3.2 3.1 3.3 4.2 4.2 4.0 4.4 4.5 4.6 4.7
6.6 6.9 6.9 7.1 7.0 6.8 6.8 6.8 6.6 6.6 6.4 6.2 6.2 6.3 6.2 6.1 5.8 5.5 5.3 5.0 4.8 4.9 5.2 5.1 5.0 5.1 4.6 2.9 2.2 2.4 2.5 2.5 2.5 2.3 2.9 3.9 4.2 4.1 4.0 4.3 4.6 4.7 4.9
7.0 7.1 7.1 7.1 7.0 7.2 7.2 7.1 6.8 6.6 6.4 6.2 6.0 6.1 6.2 6.1 6.1 5.8 5.5 5.4 5.0 5.1 5.3 5.4 5.0 5.1 4.4 2.4 1.7 1.8 1.8 2.0 2.4 3.3 3.8 3.9 3.8 3.9 4.0 4.2 4.2 4.4 4.3
7.1 7.0 6.8 6.9 7.1 7.1 7.1 7.2 7.2 7.0 6.7 6.4 6.3 6.2 6.3 6.3 6.2 6.2 5.9 5.2 5.3 5.1 5.4 5.3 5.3 4.8 3.5 2.0 1.9 2.0 1.9 2.3 3.2 3.7 4.0 4.0 3.9 4.1 4.1 4.4 4.5 4.3 4.4
6.7 6.8 6.9 6.9 6.9 7.0 7.0 7.1 7.2 7.0 6.8 6.5 6.3 6.2 6.2 6.2 6.2 6.2 6.0 5.7 5.3 5.2 5.4 5.3 5.1 4.4 3.1 2.2 2.1 2.0 3.0 3.5 3.4 3.7 4.0 4.1 4.2 4.3 4.3 4.3 4.4 4.4 4.4
6.4 6.5 6.6 6.7 6.9 7.0 7.1 7.1 7.1 7.0 6.8 6.5 6.4 6.2 6.1 6.1 6.1 6.0 5.8 5.4 5.2 5.0 5.2 5.2 4.9 4.4 3.3 2.4 2.2 2.6 3.3 3.3 3.4 3.8 4.0 4.3 4.4 4.4 4.4 4.5 4.3 4.4 4.6
6.6 6.5 6.5 6.5 6.6 6.7 6.8 6.9 7.0 6.9 6.8 6.4 6.3 6.1 6.1 6.0 5.9 5.6 5.3 5.0 4.9 5.1 5.0 5.0 4.6 4.2 3.7 3.1 2.6 3.1 3.3 3.4 3.6 4.1 4.3 4.5 4.6 4.7 4.7 4.5 4.5 4.9 5.2
7.1 7.0 6.8 6.7 6.7 6.8 6.9 6.9 6.9 6.9 6.9 6.7 6.3 5.9 5.8 5.8 5.7 5.5 5.3 5.3 5.0 5.0 5.1 4.9 4.2 3.7 3.0 2.6 3.3 3.7 3.5 3.5 3.9 4.4 4.7 4.7 4.8 5.0 4.9 5.1 5.4 5.5 5.7
7.4 7.3 7.2 7.0 6.9 6.9 6.9 6.9 6.9 6.8 6.7 6.6 6.4 6.0 5.6 5.4 5.1 5.2 5.2 5.1 4.9 5.0 4.9 4.5 3.6 3.0 2.7 3.1 3.7 3.7 3.7 4.1 4.5 4.8 4.8 4.9 5.0 5.1 5.4 5.6 5.8 5.8 5.4
7.3 7.3 7.2 7.1 7.1 7.0 6.8 6.8 6.7 6.6 6.6 6.4 6.0 6.0 5.7 5.1 4.7 4.5 4.4 4.5 4.7 4.6 4.2 3.8 3.7 3.5 3.6 3.8 4.1 4.1 4.4 4.6 5.0 4.9 4.9 5.1 5.6 5.6 5.7 5.6 5.5 5.3 5.3
7.4 7.6 7.5 7.0 6.8 6.5 6.5 6.6 6.6 6.5 6.2 5.9 5.7 5.5 5.1 4.9 4.9 4.8 4.6 4.3 4.1 3.9 3.5 3.5 3.6 3.7 4.0 4.2 4.5 5.0 5.1 5.0 5.1 5.6 5.8 5.8 5.9 5.7 5.7 5.6 5.6 5.5 5.6
7.7 8.0 7.8 7.0 6.6 6.3 6.2 6.0 5.8 5.9 5.4 5.1 4.8 4.7 4.7 4.6 4.5 4.4 4.3 4.1 4.0 3.9 3.9 4.2 4.5 4.5 4.6 4.7 4.8 5.0 5.9 6.2 6.3 6.3 6.2 5.9 5.7 5.7 5.8 5.8 5.8 5.7 5.6
7.1 7.0 6.6 6.6 6.4 6.2 5.8 5.3 5.2 4.8 4.8 4.6 4.3 4.2 4.2 4.0 4.2 4.4 4.5 4.4 4.4 4.7 4.6 4.5 4.5 4.7 5.0 5.4 5.7 5.9 6.2 6.3 6.3 6.4 6.3 6.2 6.3 6.3 5.9 5.7 5.6 5.7 5.7
6.2 6.4 6.4 6.6 6.2 5.5 5.2 4.9 4.3 4.2 4.3 4.2 4.1 4.5 4.4 4.4 4.4 4.7 5.0 4.9 4.8 4.8 5.0 5.3 5.6 5.6 5.8 6.0 6.0 6.2 6.4 6.5 6.5 6.4 6.5 6.5 6.2 5.9 5.6 5.5 5.6 5.7 5.8
6.2 5.5 5.9 5.5 5.0 5.0 5.1 4.9 4.5 4.4 4.5 4.5 4.6 4.8 4.8 5.1 5.1 5.0 5.2 5.4 5.5 5.6 5.6 5.7 5.8 5.9 5.9 6.1 6.2 6.5 6.6 6.7 6.7 6.6 6.4 6.1 5.7 5.5 5.5 5.5 5.7 5.9 5.8
5.4 4.8 4.9 5.0 5.1 4.6 4.6 4.6 4.7 4.7 5.0 5.1 5.5 5.7 5.6 5.5 5.7 5.8 5.7 5.7 5.7 5.7 5.9 6.2 6.4 6.5 6.5 6.7 6.8 6.8 6.7 6.6 6.6 6.3 6.1 5.9 5.6 5.5 5.5 5.6 5.7 5.7 5.8
5.6 5.5 5.4 5.4 5.3 5.1 5.0 4.9 5.0 5.3 5.5 5.7 5.8 5.8 5.8 5.9 5.8 5.7 5.8 5.9 6.3 6.5 6.6 6.7 6.9 7.0 7.0 6.8 6.6 6.6 6.5 6.3 6.2 6.0 5.8 5.7 5.5 5.4 5.4 5.4 5.5 5.8 6.1
6.0 5.7 5.3 5.2 5.2 5.1 5.0 5.3 5.6 5.9 5.9 5.9 5.9 5.8 5.9 6.0 6.1 6.3 6.4 6.6 6.8 6.9 7.0 7.1 7.0 6.8 6.6 6.4 6.3 6.3 6.3 6.2 6.0 5.8 5.6 5.4 5.2 5.2 5.3 5.5 5.7 5.9 5.9
5.8 5.7 5.6 5.4 5.4 5.3 5.6 5.8 6.0 5.9 5.8 5.8 5.9 6.1 6.3 6.5 6.7 6.8 6.9 7.1 7.1 7.0 7.0 6.8 6.7 6.5 6.4 6.3 6.1 6.0 5.9 5.6 5.5 5.4 5.3 5.1 5.1 5.2 5.3 5.5 5.8 5.8 5.9
6.0 6.0 5.8 5.8 6.1 6.2 6.1 6.0 5.9 5.9 6.2 6.4 6.5 6.6 6.8 6.9 7.0 7.0 7.0 6.9 6.8 6.8 6.7 6.5 6.4 6.2 6.1 5.9 5.7 5.5 5.3 5.2 5.2 5.1 5.0 5.0 5.0 5.1 5.3 5.6 5.8 5.8 5.8
6.2 6.2 6.1 6.1 6.1 6.1 6.2 6.3 6.4 6.6 6.7 6.7 6.8 6.9 6.9 7.0 6.9 6.9 6.8 6.8 6.8 6.6 6.3 6.1 5.9 5.8 5.6 5.4 5.2 5.1 5.0 4.8 4.8 5.0 5.2 5.2 5.3 5.6 5.8 6.0 6.1 6.0 6.1
6.4 6.4 6.5 6.5 6.5 6.6 6.6 6.6 6.7 6.7 6.8 6.9 6.9 6.9 6.9 6.8 6.8 6.7 6.6 6.4 6.2 6.0 5.9 5.7 5.4 5.2 5.0 4.9 4.8 4.9 4.9 5.0 5.1 5.1 5.2 5.4 5.5 5.7 6.0 6.3 6.4 6.3 6.4
Wind_Speed
6 6 7 7 7 7 7 7 8 7 8 10 11 12 12 11 10 11 10 10 13 10 7 11 9 7 5 6 5 4 4 3 6 1 2 6 8 10 12 13 12 12 12
7 7 7 7 7 7 7 7 7 7 8 10 9 11 11 11 10 11 11 12 13 13 13 12 12 8 8 7 6 6 4 4 4 6 3 3 4 11 12 10 12 12 13
7 7 7 8 8 8 7 7 7 7 7 7 8 10 10 10 11 11 12 11 12 14 14 15 15 13 10 7 6 6 5 3 3 3 3 2 2 3 2 6 8 12 15
7 8 9 9 9 8 7 7 7 7 7 7 7 8 9 9 10 9 9 9 9 10 11 12 14 15 13 11 7 7 5 5 3 3 3 3 2 2 2 3 4 5 4
8 9 13 10 9 7 8 7 7 8 7 7 7 6 6 8 8 10 11 11 10 9 8 8 8 7 14 13 9 8 8 5 3 3 2 3 3 3 4 3 4 3 3
10 12 8 7 6 7 7 7 8 7 7 7 7 9 10 7 15 18 13 11 12 12 11 9 8 9 13 16 15 16 10 8 5 3 2 3 4 3 3 3 3 1 2
8 7 5 6 6 7 6 7 7 8 7 8 8 8 9 8 19 20 19 9 11 12 12 11 9 7 10 9 14 14 11 11 5 4 4 4 3 5 4 3 4 3 4
7 5 4 5 6 5 6 7 5 5 9 7 8 7 8 7 19 20 19 10 10 11 12 13 13 12 11 10 9 6 5 5 9 9 4 4 4 7 6 5 4 3 3
7 5 5 4 5 6 6 6 3 4 3 5 5 6 8 7 20 21 19 11 11 11 9 11 11 11 17 18 10 8 6 7 15 18 13 11 12 13 12 3 2 2 6
5 6 5 3 4 5 4 5 3 3 4 4 4 5 6 6 18 20 16 7 9 8 8 10 16 14 21 19 9 8 7 7 7 4 7 15 16 12 13 11 3 4 1
4 1 1 2 3 4 4 2 4 4 5 4 5 4 6 7 12 21 21 7 8 9 9 8 9 19 19 18 15 8 8 6 11 7 7 5 5 6 8 10 7 3 3
4 4 4 4 3 3 6 4 6 6 6 5 5 3 2 6 13 20 20 14 13 8 8 7 8 18 15 15 13 14 15 11 5 5 4 5 5 5 5 9 9 7 4
5 4 4 4 3 4 5 6 5 5 4 4 4 3 1 2 2 12 17 14 14 7 5 7 11 12 14 12 16 13 10 5 5 6 6 5 3 6 10 7 6 6 4
6 5 4 5 4 4 3 3 5 5 5 4 3 3 3 3 1 3 5 7 12 8 10 7 9 11 13 8 5 8 4 4 4 3 2 4 5 3 2 2 2 2 2
4 5 5 4 5 4 2 2 3 2 5 5 4 5 5 4 4 7 5 4 5 7 7 4 4 3 4 5 3 4 3 3 3 2 3 3 3 3 2 2 2 1 2
3 5 3 4 3 2 3 5 8 8 8 7 9 7 4 8 15 15 12 12 11 13 3 3 4 4 5 4 4 3 2 4 3 3 3 2 2 3 2 1 2 2 2
3 4 4 4 3 3 2 5 7 11 20 15 12 11 7 7 11 13 15 14 14 12 3 3 3 3 2 3 3 3 3 2 3 3 3 3 3 3 3 2 2 2 2
4 5 4 4 3 2 3 4 3 4 5 4 11 11 13 12 10 7 10 9 3 4 3 3 2 3 2 3 3 3 3 3 2 2 2 3 3 3 2 2 3 3 2
5 4 4 4 4 4 4 5 5 5 5 5 5 12 13 18 18 18 16 5 4 4 3 4 3 3 3 3 3 3 3 3 2 3 2 3 3 2 2 2 3 4 4
5 9 7 5 5 5 5 5 5 5 4 6 5 3 3 4 4 4 5 4 4 4 3 3 3 3 3 3 3 3 3 2 3 2 2 3 3 3 3 3 3 3 3
5 6 8 6 5 5 5 5 5 6 6 5 3 2 9 5 4 4 3 4 3 3 2 3 2 2 2 3 3 3 3 3 3 3 3 3 3 3 3 2 3 3 3
6 6 6 6 5 6 6 6 6 6 5 4 3 5 11 4 4 3 3 3 2 2 2 2 2 2 3 3 3 3 3 3 3 4 3 3 3 3 2 2 2 2 2
6 7 6 6 6 6 6 6 6 5 5 4 3 3 3 3 3 3 3 2 2 1 3 3 2 1 3 4 5 6 3 4 5 7 3 3 3 3 3 3 3 3 3
7 6 6 5 5 5 6 6 5 6 5 4 3 2 3 3 2 2 1 1 1 0 1 3 3 4 4 7 9 10 9 6 6 11 12 5 4 4 3 3 3 4 3
6 6 6 5 5 4 4 4 4 3 3 2 2 2 1 1 1 1 2 1 2 2 5 7 8 9 10 11 11 12 12 11 12 12 12 10 5 6 4 3 3 3 4
6 5 5 4 4 3 3 3 3 3 2 1 1 1 1 2 2 3 3 2 3 4 8 9 11 12 12 13 14 15 17 17 16 16 16 12 4 4 4 4 6 3 3
Wind_Direction
221 223 203 206 216 214 209 200 189 176 177 182 183 185 187 185 186 185 182 175 178 170 158 161 163 158 173 157 148 143 138 134 131 149 114 158 170 189 207 222 235 243 252
203 220 219 215 216 215 214 206 188 185 173 175 172 179 180 183 184 186 182 176 173 171 172 165 163 163 168 173 155 141 142 132 131 145 145 148 180 200 210 212 225 233 249
204 206 215 221 216 217 206 196 188 176 172 170 165 180 179 183 182 192 194 185 181 180 175 175 172 165 169 165 151 141 137 121 110 128 144 134 189 161 194 231 241 249 254
211 214 217 218 218 206 199 192 174 168 175 180 182 183 182 181 188 177 173 170 174 179 177 179 173 171 166 156 146 141 134 133 136 124 127 161 161 169 160 202 252 235 247
206 216 226 215 209 198 194 188 171 174 186 185 174 179 175 179 183 175 177 173 166 162 153 154 162 150 159 158 152 154 146 141 142 138 157 161 157 163 194 198 217 229 253
211 223 227 218 207 205 191 179 168 171 176 172 182 180 181 188 187 188 177 174 172 164 158 148 136 136 149 155 154 157 160 156 160 154 182 180 179 187 178 200 215 221 296
228 232 216 203 204 204 182 167 171 176 166 185 183 178 188 182 186 188 177 166 168 171 164 151 143 154 146 152 156 162 169 182 183 176 182 183 174 189 184 202 216 211 236
247 229 206 204 200 171 169 181 167 166 181 182 187 183 181 184 187 185 176 164 160 157 160 158 160 162 160 155 146 146 161 191 223 224 197 177 194 191 193 190 209 231 266
278 254 226 203 186 172 181 170 157 147 163 191 184 170 178 177 190 184 172 163 157 155 147 155 160 159 167 166 155 166 181 219 228 235 236 235 246 236 225 183 223 221 280
275 265 241 192 180 185 168 162 143 139 161 151 158 168 156 163 185 186 175 166 148 137 149 160 166 170 174 176 167 166 191 218 197 212 241 248 253 258 256 248 172 220 259
315 338 125 136 150 142 125 104 116 119 123 129 134 140 153 162 181 193 185 171 160 163 168 172 182 180 180 186 182 176 196 191 211 208 216 223 210 204 222 227 200 156 169
48 56 61 76 85 103 119 113 114 126 124 122 120 112 152 168 180 191 184 182 178 171 170 171 179 184 180 194 205 208 219 222 187 196 194 203 205 203 182 161 136 129 134
86 84 75 52 65 109 116 119 115 113 121 129 137 131 123 28 188 183 179 175 170 155 145 172 174 186 197 214 221 225 226 220 211 198 208 214 165 130 123 130 164 160 188
106 96 85 89 73 47 79 116 128 130 128 133 131 128 138 154 134 171 188 174 168 146 164 175 174 182 198 197 210 231 219 197 202 203 142 120 125 133 144 147 125 135 105
115 115 113 107 112 105 70 111 112 105 136 147 152 149 155 169 173 161 155 157 151 151 136 149 167 181 196 212 192 186 153 143 138 120 125 132 143 140 131 111 113 102 142
110 124 123 128 112 112 120 114 101 115 123 134 148 135 155 175 172 176 165 166 156 154 130 160 180 197 212 193 180 149 122 152 139 121 116 129 137 136 130 102 112 129 167
112 109 108 88 86 101 98 113 106 75 71 77 85 99 124 150 165 178 186 186 188 189 173 170 172 165 152 151 157 128 137 142 108 124 141 149 138 138 137 141 156 151 208
48 75 89 98 98 95 98 90 74 82 84 55 59 84 77 75 90 133 171 179 153 69 79 106 113 83 72 103 116 117 114 110 91 128 126 141 143 140 133 165 183 175 174
26 28 54 64 70 77 75 86 95 97 98 93 67 54 57 77 71 66 67 69 87 71 56 68 74 90 89 100 104 102 124 147 157 155 156 153 148 133 170 178 175 165 163
58 54 52 49 54 55 59 67 78 80 71 73 63 30 358 56 55 59 55 69 78 82 79 95 72 75 93 106 111 116 124 135 155 162 160 156 160 168 181 179 170 170 208
58 56 55 61 60 59 59 58 61 67 73 71 46 17 78 87 85 76 72 62 76 82 88 109 113 118 122 128 142 160 174 179 182 185 176 174 168 174 183 173 188 203 195
68 67 62 64 62 61 60 59 61 68 74 80 39 44 72 60 73 87 92 97 100 106 93 116 133 156 169 168 165 164 180 193 191 175 175 176 176 170 162 173 190 190 200
69 72 63 61 64 71 68 58 66 73 75 60 53 57 55 64 62 63 73 84 94 94 116 110 122 158 171 190 204 203 185 206 206 189 175 180 178 174 173 196 195 209 204
60 64 75 69 66 65 70 73 72 68 69 62 50 40 53 51 56 59 80 94 77 306 201 213 227 226 229 226 237 240 242 233 211 205 198 181 192 195 191 178 186 202 208
66 67 67 66 64 62 66 67 69 72 73 69 43 38 34 20 357 292 264 219 212 229 251 244 243 245 245 243 239 239 244 241 238 228 210 201 186 192 186 191 190 206 209
63 62 63 66 66 58 56 56 52 57 55 31 337 281 238 242 244 245 250 236 236 247 257 258 256 254 256 254 253 252 248 241 235 229 222 207 192 207 199 201 204 203 192